User: anonymous   Login
Location: Auckland
(36.8670°S, 174.7670°E)
Time: 03:27:38
(UTC+13:00)
Language:

Cosmos 2333 Rocket - Orbit

View from above orbital plane
View from above orbital plane
View from above satellite
View from above satellite

Ground track
Ground track

The orbit data is extracted from the following two-line orbital elements,

1 24298U 96051B   19288.91714235 +.00000084 +00000-0 +71675-4 0  9998
2 24298 070.8316 068.2028 0015018 346.4416 013.6298 14.12437800191685
Epoch (UTC): 15 October 2019 22:00:41
Eccentricity: 0.0015018
inclination: 70.8316°
perigee height: 840 km
apogee height: 862 km
right ascension of ascending node: 68.2028°
argument of perigee: 346.4416°
revolutions per day: 14.12437800
mean anomaly at epoch: 13.6298°
orbit number at epoch: 19168

The dashed part of the orbit path shows where the satellite is in the earth's shadow,  

DLR